Date String (YYYY-MM-DD hh:mm:ss) UTC,Instrument flags,Ambient pressure (hPa),Sample flow (lpm),Bypass flow (lpm),Sample temperature (°C),Ambient temperature (°C),ASC tube jacket temperature (°C),LED temperature (°C),Box temperature (°C),Sample RH (%),Span deviation,Mass concentration (μg/m³),Mass concentration (μg/m³),Mass concentration (μg/m³)
DateTimeUTC,F1_M11,P_M11,Q1_M11,Q2_M11,T1_M11,T2_M11,T3_M11,T4_M11,T5_M11,U1_M11,ZSPAN_M11,X0_M11,X2_M11,X1_M11
2022-03-29 06:00:00,,0812.5,4.99,0.00,30.0,29.0,00.0,38.9,31.7,06.5,0000.0,0007.05,0002.73,0001.61
2022-03-29 06:01:00,,0812.4,5.00,0.00,30.0,29.0,00.0,38.9,31.7,06.4,0000.0,0007.37,0002.77,0001.61
2022-03-29 06:02:00,,0812.5,5.01,0.00,30.0,29.0,00.0,38.9,31.7,06.2,0000.0,0007.49,0002.83,0001.62
2022-03-29 06:03:00,,0812.5,5.00,0.00,30.0,29.0,00.0,38.9,31.7,06.2,0000.0,0006.93,0002.87,0001.64
2022-03-29 06:04:00,,0812.5,4.99,0.00,30.0,29.0,00.0,38.9,31.7,06.3,0000.0,0007.08,0002.90,0001.66
2022-03-29 06:05:00,,0812.4,5.00,0.00,30.0,29.0,00.0,38.9,31.7,06.3,0000.0,0007.52,0002.92,0001.66
2022-03-29 06:06:00,,0812.4,5.01,0.00,30.0,29.0,00.0,38.9,31.7,06.3,0000.0,0007.37,0002.85,0001.66
2022-03-29 06:07:00,,0812.4,5.00,0.00,29.9,28.9,00.0,38.9,31.7,06.3,0000.0,0007.39,0002.87,0001.66
2022-03-29 06:08:00,,0812.5,4.99,0.00,29.9,28.9,00.0,38.9,31.7,06.3,0000.0,0007.59,0002.89,0001.67
2022-03-29 06:09:00,,0812.5,5.02,0.00,29.9,28.9,00.0,38.9,31.6,06.3,0000.0,0007.89,0002.85,0001.69
2022-03-29 06:10:00,,0812.4,4.99,0.00,29.9,29.0,00.0,38.9,31.6,06.3,0000.0,0008.02,0002.83,0001.68
2022-03-29 06:11:00,,0812.4,5.02,0.00,30.0,29.0,00.0,38.9,31.6,06.3,0000.0,0008.31,0002.86,0001.69
2022-03-29 06:12:00,,0812.4,4.99,0.00,29.9,29.0,00.0,38.9,31.6,06.5,0000.0,0008.58,0002.85,0001.69
2022-03-29 06:13:00,,0812.3,5.00,0.00,29.9,29.0,00.0,38.9,31.6,06.7,0000.0,0008.47,0002.84,0001.70
2022-03-29 06:14:00,,0812.3,5.00,0.00,29.9,28.9,00.0,38.9,31.6,06.9,0000.0,0008.34,0002.78,0001.69
2022-03-29 06:15:00,,0812.3,4.99,0.00,29.9,28.9,00.0,38.9,31.6,06.9,0000.0,0008.37,0002.76,0001.67
2022-03-29 06:16:00,,0812.3,4.99,0.00,29.9,28.9,00.0,38.9,31.5,07.0,0000.0,0008.03,0002.76,0001.66
2022-03-29 06:17:00,,0812.3,5.02,0.00,29.9,28.9,00.0,38.9,31.5,07.0,0000.0,0008.00,0002.75,0001.66
2022-03-29 06:18:00,,0812.3,5.00,0.00,29.8,28.9,00.0,38.9,31.5,07.1,0000.0,0007.97,0002.73,0001.63
2022-03-29 06:19:00,,0812.3,5.00,0.00,29.8,28.9,00.0,38.9,31.5,07.2,0000.0,0007.88,0002.71,0001.62
2022-03-29 06:20:00,,0812.3,5.02,0.00,29.8,28.8,00.0,38.9,31.5,07.2,0000.0,0007.62,0002.67,0001.59
2022-03-29 06:21:00,,0812.3,4.99,0.00,29.8,28.9,00.0,38.9,31.5,07.1,0000.0,0008.23,0002.63,0001.58
2022-03-29 06:22:00,,0812.2,5.01,0.00,29.8,28.9,00.0,38.9,31.5,07.1,0000.0,0008.18,0002.69,0001.58
2022-03-29 06:23:00,,0812.2,4.99,0.00,29.8,28.9,00.0,38.9,31.4,07.5,0000.0,0007.82,0002.69,0001.56
2022-03-29 06:24:00,,0812.2,5.01,0.00,29.8,28.9,00.0,38.8,31.5,07.7,0000.0,0008.24,0002.65,0001.52
2022-03-29 06:25:00,,0812.2,5.00,0.00,29.8,28.9,00.0,38.8,31.5,07.8,0000.0,0008.29,0002.63,0001.49
2022-03-29 06:26:00,,0812.1,4.99,0.00,29.8,28.8,00.0,38.8,31.4,07.8,0000.0,0008.50,0002.69,0001.47
2022-03-29 06:27:00,,0812.1,5.01,0.00,29.8,28.8,00.0,38.8,31.4,07.8,0000.0,0008.61,0002.63,0001.44
2022-03-29 06:28:00,,0812.1,4.99,0.00,29.8,28.8,00.0,38.8,31.4,07.9,0000.0,0008.66,0002.65,0001.42
2022-03-29 06:29:00,,0812.1,4.99,0.00,29.7,28.8,00.0,38.8,31.4,07.9,0000.0,0009.41,0002.75,0001.41
2022-03-29 06:30:00,,0812.1,5.01,0.00,29.7,28.8,00.0,38.8,31.4,07.9,0000.0,0010.22,0002.78,0001.39
2022-03-29 06:31:00,,0812.1,5.00,0.00,29.7,28.8,00.0,38.8,31.4,07.9,0000.0,0010.44,0002.91,0001.38
2022-03-29 06:32:00,,0812.1,5.00,0.00,29.7,28.8,00.0,38.8,31.4,07.9,0000.0,0009.80,0002.95,0001.37
2022-03-29 06:33:00,,0812.0,5.01,0.00,29.7,28.8,00.0,38.8,31.4,08.0,0000.0,0009.77,0002.82,0001.34
2022-03-29 06:34:00,,0812.0,4.99,0.00,29.7,28.8,00.0,38.8,31.4,08.0,0000.0,0009.89,0002.82,0001.32
2022-03-29 06:35:00,,0812.0,5.00,0.00,29.7,28.8,00.0,38.8,31.4,08.0,0000.0,0009.55,0002.83,0001.33
2022-03-29 06:36:00,,0812.1,5.00,0.00,29.7,28.8,00.0,38.8,31.4,07.9,0000.0,0009.97,0002.85,0001.33
2022-03-29 06:37:00,,0812.0,5.00,0.00,29.7,28.8,00.0,38.8,31.4,08.0,0000.0,0009.94,0002.76,0001.32
2022-03-29 06:38:00,,0812.1,5.00,0.00,29.7,28.8,00.0,38.8,31.3,08.0,0000.0,0009.88,0002.74,0001.32
2022-03-29 06:39:00,,0812.0,4.98,0.00,29.7,28.8,00.0,38.8,31.4,08.0,0000.0,0010.04,0002.75,0001.32
2022-03-29 06:40:00,,0812.0,5.01,0.00,29.7,28.8,00.0,38.7,31.4,08.0,0000.0,0009.48,0002.71,0001.31
2022-03-29 06:41:00,,0812.0,5.00,0.00,29.7,28.8,00.0,38.7,31.4,07.9,0000.0,0008.72,0002.71,0001.31
2022-03-29 06:42:00,,0812.0,4.99,0.00,29.7,28.8,00.0,38.7,31.4,08.0,0000.0,0008.51,0002.63,0001.31
2022-03-29 06:43:00,,0812.0,5.00,0.00,29.7,28.8,00.0,38.7,31.4,08.1,0000.0,0009.31,0002.65,0001.30
2022-03-29 06:44:00,,0812.0,4.99,0.00,29.7,28.8,00.0,38.7,31.4,08.0,0000.0,0009.22,0002.67,0001.31
2022-03-29 06:45:00,,0811.9,5.01,0.00,29.7,28.8,00.0,38.7,31.4,07.8,0000.0,0009.27,0002.60,0001.30
2022-03-29 06:46:00,,0811.9,4.99,0.00,29.7,28.8,00.0,38.7,31.4,07.9,0000.0,0009.25,0002.55,0001.30
2022-03-29 06:47:00,,0812.0,5.00,0.00,29.7,28.8,00.0,38.7,31.4,07.9,0000.0,0008.72,0002.59,0001.30
2022-03-29 06:48:00,,0811.9,4.99,0.00,29.7,28.8,00.0,38.7,31.4,08.0,0000.0,0008.58,0002.65,0001.30
2022-03-29 06:49:00,,0811.9,5.01,0.00,29.7,28.8,00.0,38.7,31.4,07.9,0000.0,0009.31,0002.64,0001.30
2022-03-29 06:50:00,,0811.9,4.98,0.00,29.7,28.8,00.0,38.7,31.4,07.9,0000.0,0010.85,0002.59,0001.31
2022-03-29 06:51:00,,0811.9,5.00,0.00,29.7,28.8,00.0,38.7,31.5,07.9,0000.0,0011.02,0002.58,0001.31
2022-03-29 06:52:00,,0811.9,5.01,0.00,29.7,28.9,00.0,38.7,31.5,08.0,0000.0,0010.97,0002.57,0001.30
2022-03-29 06:53:00,,0811.9,5.00,0.00,29.7,28.9,00.0,38.7,31.4,08.0,0000.0,0010.91,0002.56,0001.30
2022-03-29 06:54:00,,0811.9,4.99,0.00,29.8,28.9,00.0,38.7,31.5,08.2,0000.0,0010.39,0002.55,0001.30
2022-03-29 06:55:00,,0811.9,5.01,0.00,29.8,28.9,00.0,38.7,31.4,08.0,0000.0,0010.25,0002.59,0001.31
2022-03-29 06:56:00,,0811.9,4.98,0.00,29.8,28.9,00.0,38.7,31.5,07.9,0000.0,0010.06,0002.64,0001.30
2022-03-29 06:57:00,,0811.9,5.00,0.00,29.8,28.9,00.0,38.7,31.5,07.8,0000.0,0010.00,0002.65,0001.30
2022-03-29 06:58:00,,0811.9,4.99,0.00,29.8,28.9,00.0,38.8,31.5,07.9,0000.0,0010.19,0002.60,0001.30
2022-03-29 06:59:00,,0811.9,5.00,0.00,29.8,28.8,00.0,38.8,31.5,07.9,0000.0,0010.15,0002.60,0001.31
